997 
ASUS46 KSEW 200510
RWRWA 

WASHINGTON REGIONAL WEATHER ROUNDUP
NATIONAL WEATHER SERVICE SEATTLE WA
1000 PM PDT SAT AUG 19 2017

NOTE:"FAIR" INDICATES FEW OR NO CLOUDS BELOW 12,000 FEET WITH NO 
SIGNIFICANT WEATHER AND/OR OBSTRUCTIONS TO VISIBILITY.

WAZ507-509-555>559-200600-
SEATTLE, TACOMA, EVERETT, AND VICINITY
  
CITY           SKY/WX    TMP DP  RH WIND       PRES   REMARKS
EVERETT        CLEAR     56  51  84 N12       30.18S                  
BOEING FIELD   CLEAR     67  52  58 VRB3      30.15S                  
RENTON         CLEAR     68  50  52 N8        30.15R                  
SEATAC AIRPORT PTCLDY    66  49  54 N10       30.16S                  
JBLM-MCCHORD   CLEAR     66  53  62 N8        30.16R                  
PUYALLUP       FAIR      61  54  77 CALM      30.16S                  
BREMERTON      CLEAR     61  50  67 CALM      30.17R                  
JBLM-FT LEWIS  CLEAR     65  52  61 W7        30.16R                  
TACOMA NARROWS CLEAR     61  49  64 N6        30.17R                  
$$
 
WAZ001-503-506-510-514-515-200600-
NORTH INTERIOR
  
CITY           SKY/WX    TMP DP  RH WIND       PRES   REMARKS
BELLINGHAM     CLEAR     61  54  77 S6        30.15S                  
FRIDAY HARBOR  CLEAR     54  50  86 SW5       30.16S                  
EASTSOUND      CLEAR     61  52  72 S6        30.15S                  
PORT ANGELES   CLEAR     57  50  77 W8        30.20S                  
EDIZ HOOK      FAIR      57  50  78 W10       30.19S                  
PORT TOWNSEND  FAIR      59  50  72 W9G15     30.17F                  
NAS WHIDBEY    PTCLDY    56  50  80 VRB6      30.22S                  
ARLINGTON      CLEAR     56  47  71 NW5       30.19R                  
BURLINGTON     CLEAR     55  50  82 S5        30.18S                  
$$
 
WAZ020-022-039-040-504-511-512-200600-
SOUTHWEST INTERIOR
  
CITY           SKY/WX    TMP DP  RH WIND       PRES   REMARKS
SHELTON        CLEAR     61  50  67 W9        30.15R                  
OLYMPIA        CLEAR     63  53  70 CALM      30.16R                  
CHEHALIS       FAIR      61  52  72 SW3       30.17S                  
KELSO          CLEAR     62  53  72 CALM      30.16R                  
VANCOUVER      CLEAR     67  52  58 NW8       30.12R                  
SCAPPOOSE, OR  CLEAR     63  47  55 N10       30.13R                  
PORTLAND, OR   CLEAR     67  51  56 NW9G18    30.13R                  
$$
 
WAZ021-516-517-200600-
WASHINGTON COAST
  
CITY           SKY/WX    TMP DP  RH WIND       PRES   REMARKS
FORKS          CLEAR     53  50  89 CALM      30.22S                  
HOQUIAM        CLEAR     57  52  83 W3        30.20R                  
ASTORIA, OR    CLEAR     58  52  80 NW14      30.20S                  
$$
 
WAZ019-023-024-040-567>569-200600-
CASCADE MOUNTAINS AND COLUMBIA GORGE
  
CITY           SKY/WX    TMP DP  RH WIND       PRES   REMARKS
STAMPEDE PASS  CLEAR     51  44  77 VRB7      30.21S                  
TROUTDALE, OR  CLEAR     67  52  58 VRB6      30.12R                  
HOOD RIVER, OR CLEAR     68  52  56 CALM      30.07R                  
THE DALLES, OR CLEAR     74  53  48 NW13      30.01R                  
$$

WAZ026-027-041>044-520-521-200600-
EAST SLOPES
  
CITY           SKY/WX    TMP DP  RH WIND       PRES   REMARKS
OMAK           CLEAR     68  40  35 W12       30.00R                  
WENATCHEE      CLEAR     71  44  37 W12       30.02R                  
ELLENSBURG     CLEAR     66  45  46 NW18G29   30.05F                  
YAKIMA         CLEAR     71  43  36 W7        30.04R                  
SUNNYSIDE ARPT   N/A     58  51  76 CALM      30.01S                  
YAKIMA TC      FAIR      69  37  30 N10       30.03S                  
$$

WAZ028-034-035-200600-
COLUMBIA BASIN
  
CITY           SKY/WX    TMP DP  RH WIND       PRES   REMARKS
EPHRATA        PTCLDY    71  35  26 NW8       29.99S                  
MOSES LAKE     PTCLDY    71  46  40 SW12      30.00S                  
PASCO          PTCLDY    73  48  41 CALM      29.99R                  
RICHLAND ARPT  PTCLDY    70  51  51 CALM      30.00R                  
HERMISTON, OR  PTCLDY    68  48  48 E5        29.98F                  
$$

WAZ036>038-200600-
NORTHEAST WASHINGTON
  
CITY           SKY/WX    TMP DP  RH WIND       PRES   REMARKS
SPOKANE GEIGER PTCLDY    65  34  31 SW8       30.03S                  
SPOKANE FELTS  PTCLDY    62  37  39 CALM      30.02S                  
FAIRCHILD AFB  PTCLDY    61  32  34 W7        30.04S                  
COEURDALENE,ID CLEAR     62  44  51 E6        30.04R                  
DEER PARK      CLEAR     53  33  46 CALM      30.03R                  
$$

WAZ029>033-200600-
SOUTHEAST WASHINGTON
  
CITY           SKY/WX    TMP DP  RH WIND       PRES   REMARKS
PULLMAN        CLEAR     61  39  44 CALM      30.08R                  
LEWISTON, ID   CLEAR     72  39  30 SW5       30.02R                  
WALLA WALLA    PTCLDY    69  45  41 SE8       30.02S                  
PENDLETON, OR  PTCLDY    66  39  37 SE3       30.03S                  
$$